Tracking 29892 objects as of 21-Nov-2024
HD Live streaming from Space Station
objects crossing your sky now

SL-16 DEB

Track SL-16 DEB now!
10-day predictions


NORAD ID: 22397
Int'l Code: 1992-093CN
Perigee: 776.3 km
Apogee: 830.1 km
Inclination: 70.8 °
Period: 100.8 minutes
Semi major axis: 7174 km
RCS: 0.0082 m2 (small)
Launch date: December 25, 1992
Source: Commonwealth of Independent States (former USSR) (CIS)
Launch site: TYURATAM MISSILE AND SPACE COMPLEX (TTMTR)

Note: This is SATELLITE DEBRIS
Your satellite tracking list
Your tracking list is empty




NASA's NSSDC Master Catalog

Two Line Element Set (TLE):
1 22397U 92093CN  24324.98689761  .00004458  00000-0  17772-2 0  9992
2 22397  70.8035 286.7630 0037475 344.4488  15.5486 14.28698239647706
Source of the keplerian elements: AFSPC